Wind_Speed
11 12 13 14 14 15 16 16 17 18 19 20 20 21 21 21 21 21 21 21 21 21 20 20 19 20 20 21 21 21 21 20 20 19 19 19 20 20 20 20 20 20 21 21 21 21 21 21 21 21 21 21 21 21 21 21 21 21 22 22 22 23 23 23 24 24 24 25 25 25 26 26 26 26 26 26 26 27 27 27 27 28 28 28 28 28
12 12 13 13 14 14 15 16 17 17 17 18 19 20 20 20 21 22 21 20 19 19 18 19 19 20 21 22 22 22 22 21 20 20 20 20 20 20 21 21 20 20 21 20 20 20 20 20 20 20 20 20 20 20 21 21 21 21 22 22 22 23 23 24 24 24 25 25 25 26 26 26 26 26 27 27 27 28 28 28 28 29 29 29 29 29
12 12 12 13 13 14 14 16 17 17 17 18 18 19 20 21 21 21 20 19 18 17 18 18 20 21 22 23 23 23 22 21 20 20 20 20 20 21 21 21 21 20 20 20 20 20 20 20 20 20 20 20 20 20 21 21 21 22 22 22 23 23 24 24 24 25 25 25 26 26 27 27 27 27 27 28 28 28 28 29 29 29 29 30 30 30
12 12 12 13 13 14 15 15 16 16 17 18 19 20 21 21 20 19 17 17 18 18 18 19 20 21 22 23 23 23 22 21 20 20 20 20 20 21 20 20 20 20 20 20 20 20 20 20 20 20 20 20 21 21 21 22 22 22 23 23 24 24 24 24 25 25 25 26 26 27 27 28 28 28 28 28 28 29 29 29 29 29 30 30 30 30
12 12 12 13 13 14 15 15 15 16 17 18 19 19 19 19 18 17 17 17 17 18 18 18 19 20 21 22 23 23 22 21 20 20 20 20 20 20 20 20 20 20 20 20 20 20 20 20 21 21 21 21 21 22 22 22 23 23 23 24 24 25 25 25 26 26 26 26 27 27 28 28 28 28 28 28 29 29 29 29 29 29 29 29 30 30
13 12 12 13 13 13 14 15 15 16 16 17 16 16 16 16 16 16 16 16 16 17 17 17 18 20 21 22 23 23 22 21 21 20 20 20 20 19 19 19 19 20 20 20 20 21 21 21 21 21 21 22 22 22 23 23 24 24 24 25 25 25 25 26 26 26 26 26 27 27 27 28 28 28 28 28 28 28 28 28 28 28 29 29 29 29
13 13 13 13 14 14 14 15 15 15 15 15 15 15 14 14 15 15 15 15 16 17 17 18 18 19 20 21 21 21 21 21 21 20 20 20 19 19 19 19 19 20 20 21 21 21 21 21 22 22 22 22 23 23 24 24 25 25 25 25 25 25 25 25 25 26 26 26 26 26 26 26 27 27 27 27 27 27 27 27 28 28 28 28 28 28
13 14 13 14 14 14 14 13 13 13 14 15 15 15 14 14 14 14 14 15 15 16 17 17 17 18 18 18 19 19 20 20 20 19 19 18 18 18 19 19 19 20 20 21 21 21 21 22 22 22 23 23 24 24 25 25 25 25 25 25 25 25 25 25 25 25 25 25 25 25 25 25 26 26 26 26 26 26 26 27 27 27 27 28 28 28
13 13 13 13 12 12 13 13 12 13 14 15 15 14 14 14 14 14 15 14 14 14 15 16 17 17 18 18 18 19 19 19 18 18 18 18 18 18 19 19 20 20 20 21 21 22 22 22 23 23 24 24 25 25 25 26 25 25 25 25 25 25 24 24 24 24 24 24 25 25 25 25 25 25 25 25 25 26 26 26 26 27 27 27 27 27
13 13 12 12 12 12 12 13 13 13 14 15 15 14 13 13 15 15 16 15 14 14 14 15 16 18 19 19 19 19 18 18 18 18 18 19 19 20 20 20 20 21 21 21 22 23 23 23 24 24 25 25 26 26 26 25 25 25 24 24 24 24 24 24 24 24 24 24 24 24 24 24 24 25 25 25 25 25 26 26 26 26 27 27 27 27
12 12 11 11 11 12 12 13 13 13 13 13 13 12 12 12 13 15 16 16 16 15 15 15 16 18 19 19 19 19 18 18 18 18 18 19 19 20 20 20 20 21 21 22 23 23 24 24 24 25 25 26 26 25 25 25 24 24 24 24 24 24 24 24 24 24 24 24 24 24 24 24 24 25 25 25 25 26 26 26 27 27 27 27 28 28
11 11 11 11 11 12 12 12 12 11 11 10 11 11 12 12 12 13 15 16 16 16 17 17 17 18 18 19 19 19 18 18 18 18 18 18 18 18 18 19 19 20 21 22 22 23 24 24 24 24 25 25 25 25 24 24 24 24 24 24 24 24 24 24 24 24 24 24 24 24 24 25 25 25 26 26 26 26 27 27 27 28 28 28 28 28
10 10 10 11 12 12 11 10 10 9 8 9 11 12 13 13 13 13 14 15 16 17 17 18 18 18 18 19 18 18 18 18 17 17 18 18 18 18 18 18 19 20 21 21 22 23 23 23 23 24 24 24 25 25 25 25 25 25 25 24 24 24 24 24 24 24 24 25 25 25 25 26 26 26 26 27 27 27 27 28 28 28 28 29 29 29
9 9 10 11 11 11 11 9 8 8 10 11 12 13 14 14 14 14 14 15 16 16 17 18 18 18 18 18 17 17 17 17 17 17 17 18 18 18 18 19 20 21 21 21 21 22 22 23 23 23 23 24 25 25 25 26 25 25 24 24 24 24 25 25 25 25 25 25 26 26 26 26 26 27 27 27 27 28 28 28 28 29 29 29 29 30
9 10 11 11 12 11 9 8 8 10 12 13 13 14 14 14 13 13 14 15 16 16 17 17 18 18 17 17 16 15 15 15 16 17 18 19 19 19 19 20 20 21 21 21 22 22 22 22 22 22 23 24 25 25 26 25 25 25 25 25 26 26 26 26 26 26 26 26 26 26 26 27 27 27 27 27 28 28 28 28 29 29 29 30 30 30
11 11 12 12 11 9 8 8 9 12 13 13 13 13 13 13 13 13 14 15 16 16 16 16 17 17 17 17 15 14 14 14 16 17 19 20 21 20 20 20 20 21 21 21 21 22 22 21 21 22 23 24 25 25 26 26 26 26 26 27 27 27 27 27 27 27 27 27 27 27 27 27 27 27 27 28 28 28 28 28 29 29 29 30 30 30
11 11 10 9 8 8 9 10 11 13 14 14 13 13 13 13 14 14 14 15 16 15 15 15 14 14 15 17 16 14 14 15 16 18 20 21 22 21 20 19 19 20 20 21 21 21 21 20 21 22 23 24 25 26 26 27 27 27 28 28 28 28 28 28 28 28 28 27 28 27 27 27 27 27 28 28 28 28 28 28 29 29 29 29 30 30
9 8 7 7 8 10 11 12 13 14 14 14 13 13 13 14 14 15 15 15 15 15 15 14 14 13 13 15 17 17 16 17 18 19 20 22 23 22 19 18 18 19 20 20 20 21 21 21 21 23 24 25 26 27 27 28 28 29 29 29 29 28 28 28 28 28 28 28 28 28 28 28 28 28 28 28 28 28 28 28 29 29 29 29 29 30
8 8 8 10 11 13 13 14 14 14 13 13 13 14 14 15 15 16 16 16 15 14 14 14 15 16 16 17 19 20 19 18 18 19 20 22 22 22 19 18 18 19 20 20 21 21 21 22 23 25 26 27 27 28 28 28 28 29 29 29 29 29 29 29 29 29 29 29 29 29 29 28 28 28 28 28 28 28 28 28 28 29 29 29 29 29
11 11 11 13 14 14 14 14 14 13 13 13 14 15 15 16 16 16 16 15 14 13 13 13 15 17 18 20 21 22 20 19 18 18 19 21 22 21 19 17 17 18 20 20 21 21 21 22 23 25 25 26 26 27 27 28 28 29 29 29 29 29 29 29 29 29 30 29 29 29 29 29 28 28 28 28 28 28 28 28 28 29 29 29 29 29
13 13 14 14 14 14 14 14 14 13 14 15 16 16 17 17 16 16 15 14 13 13 14 14 16 18 20 22 23 23 21 19 17 17 18 20 20 20 18 16 17 18 20 21 21 21 21 22 23 24 25 25 26 27 27 28 29 29 29 30 30 30 30 30 30 30 30 30 29 29 29 29 29 28 28 28 28 29 29 29 29 29 29 29 29 29
14 14 15 13 13 13 14 15 15 15 16 17 18 18 18 17 15 14 13 13 13 14 16 17 19 21 22 23 24 23 20 17 16 15 16 17 19 20 18 16 16 18 20 21 21 21 21 22 23 24 25 26 26 27 28 28 29 29 29 29 30 30 30 30 30 29 29 29 29 29 29 29 29 29 28 28 29 29 29 29 29 29 29 30 30 30
15 15 14 14 13 14 14 15 16 17 18 20 20 19 18 16 15 14 14 14 15 17 19 20 22 23 23 23 22 21 19 16 14 14 14 14 17 19 18 17 17 18 20 21 21 22 22 23 23 24 25 26 26 27 27 28 28 29 29 29 29 29 29 29 29 29 29 29 29 29 29 29 29 29 29 29 29 29 29 29 29 29 29 30 30 30
13 13 13 13 14 15 16 17 18 19 19 19 18 17 17 16 16 17 17 18 18 19 20 21 21 21 21 21 20 19 17 14 13 12 13 14 17 19 18 17 17 19 21 21 21 22 22 23 24 24 24 25 26 26 27 27 28 28 28 28 29 29 29 29 29 29 29 29 29 29 29 29 29 29 29 29 29 29 29 29 29 29 29 29 29 29
12 13 13 14 15 16 17 17 18 17 16 16 15 15 16 17 18 19 19 19 19 18 18 18 18 18 18 18 18 17 15 14 13 12 13 14 17 19 19 17 17 19 21 22 22 22 23 24 24 24 24 25 25 26 26 26 27 27 27 28 28 28 28 28 28 28 29 29 29 29 29 30 30 30 30 30 29 29 29 29 29 28 29 29 29 29
12 13 13 13 14 14 15 15 15 15 16 17 17 18 18 18 18 19 18 17 16 15 15 14 15 16 17 17 17 16 15 13 12 12 12 14 16 18 19 18 17 19 21 22 22 22 23 24 25 25 25 25 25 25 25 25 26 26 27 27 27 28 28 28 28 29 29 29 29 29 30 30 30 29 29 29 29 29 28 28 28 28 28 28 29 29
11 11 12 12 13 13 14 15 16 17 18 19 19 19 18 17 17 16 16 15 13 12 12 12 13 14 15 15 15 15 15 14 12 12 13 14 16 17 18 18 18 19 21 22 23 23 23 24 25 25 25 24 24 24 24 24 25 25 26 27 27 28 28 29 29 29 29 29 29 29 29 29 29 29 29 28 28 28 28 28 28 28 28 28 28 28
11 12 12 13 14 15 16 17 19 20 20 20 19 18 16 15 14 14 14 13 12 11 11 12 12 12 13 14 16 17 16 15 13 12 12 13 14 15 18 18 18 18 20 22 23 24 23 23 23 24 23 22 22 22 23 23 24 25 26 27 28 28 28 28 28 28 28 28 28 28 28 28 28 28 28 28 28 28 28 28 28 28 28 27 26 26
14 14 15 15 16 17 18 20 21 21 21 19 17 14 13 12 12 12 12 12 11 11 12 12 12 12 13 15 17 18 17 15 13 11 11 12 13 15 18 18 18 18 19 21 23 24 23 21 20 20 20 21 21 22 22 23 24 25 26 27 27 27 27 27 27 27 27 27 28 28 28 28 28 28 28 28 28 28 28 28 27 27 26 25 24 24
14 14 15 16 17 18 20 20 21 20 19 16 13 11 11 11 12 12 12 11 11 11 12 13 13 13 13 14 15 15 13 12 11 10 11 11 13 16 18 18 18 18 18 17 16 16 19 20 19 18 18 20 21 22 22 23 23 24 24 25 26 26 25 26 26 26 27 27 27 28 28 28 28 28 28 27 27 27 27 27 27 26 24 23 23 23
14 16 17 19 20 21 21 21 19 18 15 12 10 9 9 10 11 11 11 10 11 11 12 12 13 13 13 11 9 7 8 12 12 11 12 12 14 16 17 18 18 18 17 14 9 6 11 17 20 20 19 20 22 23 23 23 23 23 24 24 24 24 25 25 25 26 27 27 27 27 27 27 27 27 27 27 27 27 27 26 26 25 23 22 22 22
18 20 21 22 22 22 20 19 17 15 13 11 10 9 9 10 10 10 10 10 11 11 12 13 13 13 13 12 10 9 11 16 16 15 14 13 15 17 17 17 18 19 18 16 13 10 7 11 19 24 23 23 23 24 24 24 23 23 23 24 24 24 25 25 25 26 26 26 26 26 26 27 27 27 27 27 27 27 26 26 25 24 23 22 22 22
20 21 22 22 22 21 19 17 15 13 12 12 11 10 10 10 10 10 10 11 11 12 12 13 13 14 14 15 15 16 18 19 18 17 15 14 15 16 18 18 18 19 19 18 18 17 14 15 20 25 26 25 24 24 24 24 23 23 23 23 24 24 25 25 24 24 25 25 25 26 26 26 26 26 26 26 26 26 26 25 24 23 22 22 22 22
22 22 22 22 21 19 17 15 13 12 11 10 10 9 9 9 10 10 10 11 12 12 13 13 13 14 15 15 16 18 20 20 18 16 15 14 15 17 19 19 19 19 19 18 18 18 19 21 22 23 24 25 26 25 24 23 23 23 22 22 23 24 24 24 24 24 24 24 25 25 25 25 25 25 25 25 25 24 24 24 23 23 22 22 22 22
23 22 21 20 18 17 15 13 12 10 10 9 9 9 9 10 10 11 11 11 12 13 13 14 14 15 15 15 16 18 20 20 19 17 16 16 17 18 20 20 19 18 17 18 18 18 18 21 22 22 22 24 26 26 24 23 22 22 22 22 22 23 23 23 23 24 24 24 24 24 24 24 24 24 24 24 24 24 23 23 23 23 23 23 23 23
20 19 17 15 14 12 11 10 10 9 9 9 9 10 10 10 11 11 12 12 12 13 14 15 16 16 17 17 18 20 21 22 21 20 19 18 19 19 20 20 20 19 18 18 18 18 18 20 22 23 22 22 23 24 25 24 23 22 22 22 22 23 23 23 23 23 23 23 24 24 24 23 23 23 24 24 24 24 24 25 25 25 25 25 25 25
15 14 12 11 10 10 10 10 10 10 10 10 10 11 11 12 12 13 13 13 14 15 15 16 16 17 18 19 21 22 23 24 24 23 22 22 22 22 21 21 22 21 19 19 19 19 19 19 21 22 22 20 20 22 24 25 25 24 24 24 24 24 24 23 23 23 23 23 23 23 23 23 23 23 24 24 25 25 25 25 25 25 25 25 25 25
11 11 10 10 9 9 10 10 10 10 11 11 11 12 13 13 14 14 14 14 15 16 16 16 17 17 18 20 22 24 26 27 27 27 27 26 26 25 24 23 23 22 20 20 20 20 20 18 16 15 17 20 22 24 25 26 26 26 26 26 25 25 24 23 22 22 22 22 23 23 24 23 23 23 23 24 23 23 23 23 24 24 23 23 23 24
9 10 10 10 9 9 10 10 11 11 12 13 13 14 14 14 14 14 14 14 15 15 15 16 17 18 20 22 24 25 26 27 28 29 29 28 27 26 25 24 23 23 22 22 21 21 20 19 17 16 16 19 22 25 26 25 25 26 27 27 27 26 25 23 22 21 21 22 23 24 24 24 23 22 22 22 22 21 21 22 22 22 22 21 21 22
9 10 10 10 9 10 10 11 12 13 13 14 15 15 15 15 14 14 14 14 14 14 15 16 17 18 20 21 21 22 24 25 26 27 27 27 26 26 25 24 24 24 23 23 22 22 21 20 21 22 22 21 22 24 25 26 26 26 26 25 25 26 26 24 24 23 23 23 23 23 23 23 22 22 22 22 21 21 21 21 22 22 21 20 20 20
9 10 10 10 10 11 11 12 13 14 14 15 15 14 14 14 14 14 14 14 14 14 14 15 17 18 19 20 20 20 21 23 23 24 24 24 25 25 25 25 25 24 24 23 23 22 22 22 23 23 24 23 24 25 26 27 27 27 26 24 25 27 28 27 26 25 23 23 22 22 22 23 23 22 22 22 22 22 22 22 22 22 22 21 21 20
9 10 10 10 11 11 12 13 13 14 14 14 14 13 13 13 13 14 14 14 14 14 14 15 16 18 19 20 20 19 19 20 20 21 22 22 23 23 24 25 25 25 24 23 23 23 23 23 23 24 24 24 23 24 25 27 28 27 26 25 26 27 28 28 25 23 21 21 22 22 22 23 23 23 23 23 23 23 23 23 23 23 23 22 22 22
10 10 10 11 12 12 13 14 14 14 14 13 13 13 13 13 13 13 14 14 15 15 15 15 16 18 19 20 21 20 19 18 18 18 19 20 21 21 22 23 24 25 25 24 23 23 24 24 23 24 24 24 23 24 25 27 28 28 27 26 25 24 22 24 25 24 22 22 23 23 23 23 23 23 23 23 23 23 23 23 24 24 24 24 23 23
10 11 11 12 12 13 13 13 13 13 13 13 13 13 13 13 13 13 14 14 15 15 16 16 17 17 18 19 20 20 19 18 17 17 17 18 19 20 21 22 23 24 24 24 23 23 23 24 24 25 25 24 23 23 24 26 27 28 28 27 26 24 23 24 26 26 25 25 25 25 24 24 24 24 23 23 23 23 23 23 24 24 25 25 25 25
11 11 12 12 12 12 13 13 13 13 13 13 13 13 13 13 13 13 13 14 15 15 16 16 16 16 17 18 19 20 20 20 19 18 17 17 18 18 19 20 21 22 23 24 24 24 23 24 25 25 24 24 23 23 24 25 26 27 28 28 26 26 26 27 27 26 25 25 26 25 25 24 24 23 23 23 23 23 23 23 23 24 25 25 26 26
10 11 11 12 12 12 13 13 13 13 13 13 13 13 13 13 13 13 14 14 14 15 16 15 15 15 16 18 19 20 21 21 21 20 19 18 18 17 18 19 19 21 22 23 25 25 25 25 26 26 26 25 25 25 26 25 25 26 27 27 27 26 26 26 26 25 25 25 25 26 26 25 24 23 23 24 25 25 24 23 23 23 24 25 25 26
10 11 12 12 13 13 13 13 13 13 13 13 13 13 13 13 13 13 14 14 14 15 15 15 15 15 16 17 18 19 19 21 22 22 22 21 20 19 19 19 19 20 21 22 24 25 26 28 28 27 26 25 25 25 26 26 25 25 26 26 26 25 25 26 26 26 25 25 25 26 27 26 25 25 25 25 25 25 25 24 24 24 24 24 24 25
11 11 12 12 13 13 13 13 13 13 13 13 14 14 13 13 13 13 14 14 14 14 15 15 15 16 16 17 18 18 18 19 21 22 23 22 22 22 21 20 20 20 21 21 23 24 25 27 28 28 27 25 24 24 26 26 25 25 25 25 25 25 25 26 27 26 25 25 26 27 27 25 24 24 24 25 25 25 25 25 24 23 23 23 24 24
11 12 12 13 13 13 13 13 13 13 13 14 14 14 14 14 13 13 13 14 14 14 14 15 15 16 16 17 18 18 19 19 20 21 21 22 22 22 22 22 22 22 22 22 22 23 23 24 25 25 25 25 25 25 26 27 26 25 25 24 24 24 24 26 27 27 26 25 26 27 26 25 24 24 23 24 25 26 26 26 25 24 23 23 23 24
12 12 13 13 13 13 13 14 14 14 14 14 14 15 15 15 14 14 13 14 14 14 14 15 15 16 17 17 18 18 18 19 20 20 21 22 22 22 22 22 22 22 22 22 22 22 22 22 22 22 22 23 24 25 26 26 26 26 25 24 24 23 24 25 26 27 26 25 25 25 25 25 24 23 23 23 25 26 26 26 25 24 22 21 21 22
12 13 13 13 13 14 14 14 15 15 15 15 15 15 15 15 15 14 14 14 14 14 15 15 16 16 17 18 18 19 19 19 19 20 21 22 22 21 21 21 21 21 20 20 20 20 19 18 18 19 21 20 20 21 24 25 25 24 24 24 24 24 23 24 26 26 26 25 25 25 24 24 24 23 22 22 22 23 24 24 24 24 22 21 20 21
Wind_Direction
272 275 277 279 282 285 287 291 297 303 306 309 312 314 316 317 316 316 317 317 317 316 315 314 313 313 314 315 316 316 314 312 309 308 306 305 304 303 302 302 300 299 298 297 296 296 295 294 294 293 293 293 292 291 291 290 289 289 289 289 289 288 287 286 286 286 286 285 285 284 284 284 284 284 284 284 284 284 284 284 283 281 281 280 280 279
274 277 279 282 284 286 288 293 299 303 306 308 310 311 313 314 315 316 316 316 315 313 311 310 311 311 311 313 314 314 313 311 309 308 306 305 304 304 303 302 300 299 298 298 296 296 295 294 294 294 293 293 293 292 291 290 290 289 289 290 289 288 288 287 287 286 286 285 284 284 283 283 283 283 282 282 281 281 281 280 280 280 280 279 279 279
277 279 280 282 283 286 290 296 301 304 305 306 307 308 311 311 312 313 312 312 311 309 308 308 310 311 311 311 311 312 311 311 310 308 306 305 304 303 303 302 301 300 299 298 297 296 295 295 294 294 294 293 293 292 292 291 291 291 291 290 290 289 289 289 288 287 287 285 284 283 283 282 282 282 282 281 281 280 279 278 278 278 278 278 278 277
278 280 281 284 286 288 291 297 301 304 304 305 306 308 310 310 309 308 308 308 308 307 308 309 310 310 309 309 310 311 311 311 310 308 307 305 304 303 302 302 301 300 299 299 298 297 296 296 295 295 294 294 293 293 293 292 292 292 292 291 291 290 290 290 289 288 288 287 285 283 283 282 282 281 281 281 280 279 279 278 278 278 277 277 277 277
279 280 283 286 289 290 293 298 301 303 304 304 306 307 308 307 306 305 305 306 306 306 307 308 308 308 307 307 309 311 313 312 310 308 307 306 304 304 302 302 301 300 299 299 298 297 297 296 296 295 295 294 294 294 293 293 293 292 292 292 292 291 290 289 288 288 287 287 285 283 282 281 281 280 280 280 279 279 278 278 278 278 277 277 276 276
278 280 283 286 288 290 295 298 301 303 305 306 306 305 305 304 304 304 304 304 305 305 306 306 306 305 306 307 309 312 313 312 310 308 307 306 305 303 302 301 300 299 298 298 297 297 296 296 296 295 295 295 294 294 294 294 293 293 292 292 291 291 290 289 289 288 287 286 284 283 282 281 280 279 279 279 278 278 278 278 278 278 277 277 276 276
279 281 284 286 288 292 295 298 300 303 306 307 307 306 304 303 303 303 302 303 304 305 305 305 305 305 305 306 308 310 311 311 310 308 306 305 303 302 300 300 299 298 297 297 296 296 296 295 295 295 295 295 295 294 294 294 293 293 293 292 292 291 290 290 289 287 286 285 284 283 282 281 280 279 278 278 278 277 277 277 277 277 276 276 275 275
281 284 286 288 292 295 297 297 299 302 305 306 307 307 306 306 305 304 304 303 304 305 306 305 305 305 305 304 305 306 307 307 307 306 305 303 302 301 300 300 299 298 297 296 296 295 295 295 295 295 295 295 295 294 294 294 293 293 293 292 291 290 290 289 288 287 286 285 284 283 282 281 280 279 278 277 277 276 276 276 275 275 275 275 274 274
280 284 287 289 293 297 299 299 300 303 305 305 303 303 305 307 308 308 308 306 306 306 306 306 305 305 305 305 305 304 303 302 301 301 301 301 301 301 300 300 300 299 298 297 296 296 295 295 295 295 295 294 294 294 294 293 293 293 293 292 291 291 290 289 288 287 286 285 284 283 282 280 279 278 277 276 276 275 275 275 274 274 274 273 273 273
279 281 285 289 292 294 297 299 301 303 303 303 301 300 302 305 309 311 311 310 308 307 307 305 304 304 304 305 305 304 302 300 299 298 297 298 298 299 299 299 299 299 298 297 297 296 295 295 294 294 294 293 293 293 293 293 293 292 292 292 291 291 290 290 289 288 287 286 285 284 282 281 280 278 277 276 275 275 274 274 273 273 273 272 272 272
277 280 285 289 293 293 293 294 296 299 300 301 302 303 303 306 310 312 312 311 310 309 307 305 303 302 303 303 304 304 303 302 301 300 299 299 299 300 300 299 299 299 298 298 297 296 295 294 294 294 294 293 293 293 293 292 292 292 292 292 291 291 291 290 289 289 288 287 286 284 283 282 280 279 278 276 275 275 274 273 273 272 272 272 272 271
275 281 286 291 294 295 293 292 292 294 298 304 308 309 309 310 311 311 309 308 308 307 306 304 302 300 299 300 301 302 303 303 303 304 304 304 304 304 303 303 302 302 301 300 299 297 296 296 295 295 294 294 293 293 293 292 292 293 292 292 292 292 291 290 290 289 288 287 286 285 283 282 281 279 278 277 276 275 274 274 273 272 272 271 271 271
276 281 286 290 293 294 293 291 293 297 302 308 311 311 311 312 312 309 304 302 302 303 303 302 301 299 298 298 298 300 302 303 304 306 306 307 307 307 306 305 305 304 303 301 300 298 298 297 297 296 295 294 294 294 294 294 294 294 294 293 293 292 291 291 290 289 288 287 286 285 284 283 281 280 278 277 276 276 275 274 273 272 272 271 271 271
278 283 287 290 292 292 291 290 294 302 306 309 309 309 309 309 308 305 300 297 298 299 300 299 299 300 300 300 299 300 301 303 305 306 307 306 306 306 306 305 303 302 301 300 298 297 297 297 297 296 295 295 295 296 296 297 297 296 294 293 292 292 291 290 289 289 288 287 286 285 285 283 282 280 279 278 277 276 275 274 274 273 272 271 271 271
284 288 290 291 292 291 291 294 300 304 306 307 308 307 306 305 303 300 297 296 297 299 299 299 300 301 302 302 302 302 303 304 306 307 307 305 304 304 304 303 301 300 299 297 296 296 296 296 295 294 294 295 295 296 297 296 296 295 293 292 292 291 291 291 290 289 289 288 287 286 285 284 283 282 280 279 278 277 276 275 274 273 273 272 271 271
289 290 290 291 291 290 292 299 303 305 305 306 306 306 304 300 297 295 294 294 296 299 300 302 303 304 305 305 306 307 308 308 308 307 306 304 303 302 303 301 299 298 296 295 294 294 295 295 294 293 293 293 294 296 296 295 294 293 293 292 292 292 291 291 291 290 289 288 287 286 286 285 283 282 281 280 279 278 277 276 275 274 273 273 272 271
288 286 284 286 288 292 296 301 303 303 304 304 303 300 296 293 291 290 290 291 294 296 298 301 304 306 307 308 309 310 313 312 310 307 305 302 301 301 301 299 297 295 294 293 292 293 294 293 292 292 292 292 294 295 295 294 294 293 292 292 292 292 291 292 291 291 290 289 288 287 286 285 284 283 282 281 280 279 278 277 276 275 274 274 273 272
289 288 287 289 293 297 301 302 302 302 302 301 299 295 290 287 286 285 285 286 288 291 294 297 299 302 303 305 306 309 313 313 311 307 303 300 299 299 300 298 295 293 293 291 292 293 294 292 291 291 291 292 293 293 293 293 292 292 292 292 292 292 292 292 291 291 290 290 289 288 288 287 285 284 283 281 280 280 279 278 277 277 276 275 274 273
293 293 295 296 297 298 299 299 299 299 298 296 294 292 288 285 283 283 283 284 284 286 288 292 295 297 297 298 300 304 309 310 309 305 302 298 298 299 300 298 295 294 293 292 293 294 294 293 293 292 293 293 293 292 292 292 292 292 292 291 292 292 292 292 291 291 291 290 290 289 288 288 287 285 284 283 282 280 279 279 278 277 277 276 275 274
292 291 291 294 295 295 295 293 293 293 292 291 289 287 285 284 283 283 283 282 283 284 285 287 291 294 295 296 298 302 306 308 306 302 299 296 296 297 299 299 296 295 294 293 294 296 295 295 294 294 294 294 293 293 292 292 291 291 291 291 292 292 291 292 292 291 291 291 290 289 289 288 287 286 286 284 283 282 281 280 279 278 277 276 275 274
290 289 288 290 291 291 290 290 290 289 288 286 283 281 281 282 283 284 285 285 284 286 290 289 291 294 296 296 296 298 302 304 302 299 297 296 295 296 299 299 297 295 294 294 296 297 296 295 295 295 294 294 294 293 293 292 291 291 291 291 291 291 291 291 291 291 291 291 290 289 289 288 287 287 286 285 284 283 282 280 280 279 278 277 276 275
290 289 289 288 286 285 285 286 286 285 284 280 277 275 276 279 282 285 288 290 292 294 295 294 293 293 294 293 293 294 297 297 295 295 295 294 293 295 298 299 298 295 294 295 297 298 297 296 295 295 294 294 294 293 293 292 292 291 291 291 291 291 291 291 291 291 291 290 290 289 288 288 287 286 285 284 284 283 282 281 281 280 279 278 277 277
288 287 286 285 283 281 282 282 281 280 279 276 273 272 275 279 284 290 295 297 297 297 295 294 293 292 291 289 290 292 293 292 290 290 291 289 291 294 299 301 299 296 294 296 298 299 299 297 296 295 295 295 294 294 293 293 292 292 292 291 291 291 291 291 291 291 290 290 289 288 288 287 287 286 285 285 285 284 284 283 283 282 282 281 280 279
284 283 283 282 282 281 281 279 278 278 279 280 282 285 289 292 295 297 297 296 295 294 294 293 293 292 290 290 291 291 292 290 289 288 286 286 289 293 299 301 299 296 295 297 299 300 299 298 297 296 296 295 294 294 294 293 293 292 292 292 292 291 291 291 291 291 290 290 289 289 289 288 288 288 288 287 287 286 286 285 284 283 282 282 281 280
284 283 283 282 281 280 280 280 281 285 291 297 303 306 306 303 300 297 294 293 292 292 293 293 292 291 291 293 293 293 293 292 290 286 282 284 288 293 297 299 298 296 297 299 300 301 300 299 298 297 297 295 295 294 294 293 293 293 293 293 292 292 292 292 292 291 291 291 290 290 290 289 289 289 288 288 287 286 285 284 284 283 282 282 281 280
285 284 282 282 282 283 285 289 294 299 303 306 306 304 302 300 297 295 293 291 291 291 292 291 289 289 292 294 294 294 296 297 294 286 280 284 289 293 297 299 297 296 298 300 301 302 301 300 299 298 297 296 295 294 293 293 293 293 293 293 293 293 292 292 292 291 291 291 290 290 289 289 289 288 288 287 286 286 285 284 284 283 283 282 281 280
286 284 282 284 286 289 292 295 297 298 299 298 297 296 296 295 294 291 288 288 290 291 291 290 289 291 293 294 294 295 298 300 297 289 284 285 288 291 296 299 299 298 299 301 302 301 300 299 298 297 296 295 294 294 293 294 294 294 294 294 293 292 292 292 291 291 291 290 290 289 289 288 288 287 287 286 286 285 285 284 284 284 283 283 283 281
289 288 287 288 289 290 292 293 294 295 296 296 295 293 292 290 287 284 283 286 290 291 288 286 287 290 293 294 295 297 299 299 296 292 290 288 286 289 295 300 302 301 301 302 302 301 299 296 295 295 295 294 294 295 295 295 295 295 294 293 293 292 292 292 291 291 291 290 290 289 289 288 288 287 287 286 286 285 285 285 285 285 285 284 283 281
293 291 289 288 289 291 293 295 297 299 300 300 297 293 288 282 278 277 279 284 288 288 284 283 283 286 289 293 296 298 298 296 295 296 299 294 289 289 296 301 303 303 304 305 305 304 301 297 296 295 295 296 297 297 297 297 296 295 295 294 294 293 292 292 292 291 291 291 290 289 289 288 288 287 287 287 286 286 285 285 286 286 285 284 282 280
291 291 290 291 294 298 301 303 305 306 306 305 300 291 283 276 272 273 277 281 282 281 280 281 282 285 289 295 299 300 298 298 300 306 309 302 295 295 300 302 303 303 306 308 308 307 304 302 300 299 298 299 299 298 298 297 296 295 295 295 294 293 293 293 293 292 292 291 291 290 289 288 288 288 287 287 286 286 286 286 286 286 285 283 281 279
296 299 300 302 305 307 310 310 311 311 310 307 300 289 281 276 273 273 275 276 275 275 277 279 281 284 288 294 297 297 295 298 303 309 311 302 296 296 300 301 301 302 304 305 306 308 307 306 305 304 303 301 300 299 298 297 296 295 295 294 293 293 293 294 294 293 292 292 291 290 289 288 288 287 287 286 286 286 285 285 285 285 284 282 280 278
306 307 308 309 311 313 314 314 314 313 311 307 301 293 287 282 277 274 273 272 271 272 275 277 280 282 283 283 280 279 284 292 298 303 305 298 293 294 297 297 298 299 300 298 293 291 297 301 304 304 304 303 301 299 298 297 296 295 295 294 293 293 294 295 295 294 293 292 292 291 289 288 287 286 286 285 284 284 284 284 284 283 282 281 279 278
308 308 309 310 312 314 314 314 314 312 310 306 301 296 291 286 280 275 274 273 272 272 274 276 278 280 281 279 277 278 281 287 293 298 300 296 293 294 296 296 296 297 298 295 291 286 284 288 296 300 302 302 300 299 298 297 296 295 294 294 293 293 294 295 295 294 294 293 293 292 290 289 287 286 285 284 283 283 282 282 281 280 278 277 277 276
306 306 308 310 312 314 315 315 314 311 306 301 296 292 289 285 282 280 277 275 274 272 271 272 274 277 280 281 280 281 283 286 292 297 298 295 292 292 295 295 295 295 296 295 293 290 287 287 291 296 299 300 300 299 298 297 296 295 293 292 292 292 293 294 294 294 293 293 292 291 290 289 288 287 286 285 284 282 281 280 279 278 276 274 273 272
306 308 309 312 314 316 316 315 312 308 302 297 292 290 289 288 287 285 282 279 276 274 272 270 270 271 274 277 280 282 284 287 292 296 297 293 291 291 292 292 292 293 293 293 293 292 291 290 292 294 296 299 300 299 298 298 297 296 295 293 292 291 292 292 293 293 292 291 290 289 289 289 288 288 287 286 285 283 282 282 280 278 276 273 271 270
308 310 311 314 315 314 312 310 308 305 303 299 297 296 295 293 291 289 286 283 280 277 275 273 270 269 269 269 272 276 280 285 291 294 292 289 288 288 289 289 290 290 290 289 289 289 290 291 292 293 294 295 297 299 300 300 300 299 298 296 294 292 291 291 291 290 290 289 288 287 287 287 287 286 286 285 285 285 284 283 282 279 277 275 272 270
310 311 311 313 312 310 308 308 307 307 306 304 302 301 300 298 295 293 289 287 285 283 281 278 275 271 268 268 269 273 277 282 286 288 288 286 285 284 283 284 286 286 285 284 285 286 288 289 291 292 293 291 293 296 299 302 303 302 299 298 297 295 293 292 290 288 287 286 285 285 285 285 285 285 285 285 285 285 285 283 281 280 278 276 274 271
310 309 309 310 310 309 309 308 308 307 307 305 304 303 302 300 298 295 293 290 289 288 285 282 279 276 274 272 273 275 278 281 283 285 286 285 283 281 280 281 282 282 280 279 280 282 285 287 289 291 291 291 291 293 295 299 300 300 299 299 298 296 294 293 291 288 287 285 285 285 285 285 284 284 284 284 285 284 283 282 282 281 280 278 276 274
307 306 307 307 307 308 308 307 307 306 306 305 304 303 302 301 299 297 295 292 290 288 286 284 282 281 280 280 279 279 279 280 282 284 285 285 282 280 278 278 279 279 279 278 278 278 279 280 282 284 287 290 292 293 294 295 296 297 299 300 300 298 295 294 293 291 289 287 287 286 286 285 284 282 282 282 282 280 280 280 280 281 281 278 278 278
305 304 304 304 304 305 305 305 305 305 305 304 304 303 303 303 302 301 298 295 292 290 289 289 288 287 286 284 283 282 281 282 283 285 285 285 284 281 277 275 276 278 279 278 277 276 276 276 277 279 282 284 287 290 292 293 293 294 297 298 298 297 297 296 295 293 291 288 286 285 285 284 283 281 280 279 278 277 277 277 278 279 277 275 275 276
303 302 302 302 304 304 304 303 303 304 304 305 305 305 305 305 304 303 302 300 298 296 296 296 296 295 294 291 288 285 283 284 285 286 286 287 287 285 281 277 275 276 277 277 276 275 274 274 276 278 279 280 283 286 288 289 290 292 293 292 292 292 294 295 294 292 289 287 285 284 284 284 284 282 281 279 277 275 275 274 274 274 274 273 271 270
300 299 300 302 303 304 304 304 304 305 305 305 305 305 304 305 305 305 305 304 303 302 302 302 302 301 301 298 296 293 290 289 289 289 289 290 289 287 283 280 277 276 275 275 275 274 273 273 273 275 277 278 280 283 286 287 289 290 290 288 289 291 293 293 292 291 289 287 287 286 285 285 284 283 281 280 278 277 275 273 272 271 271 270 268 266
298 297 299 301 302 303 304 306 307 307 308 307 305 303 303 305 305 305 304 303 304 304 305 305 304 303 302 302 302 302 300 297 295 293 292 292 291 289 286 283 281 278 275 273 273 274 275 274 273 273 274 276 277 279 282 286 288 289 288 287 288 290 292 292 293 293 291 289 288 286 285 284 282 281 280 280 279 278 276 274 272 270 268 267 265 264
299 299 300 302 303 305 307 307 307 308 308 306 304 303 303 304 305 304 303 301 302 303 304 305 305 304 301 301 303 305 306 305 303 300 296 295 295 293 289 286 284 280 276 271 270 273 276 277 277 276 276 276 275 276 278 282 284 286 287 286 285 283 283 285 289 291 290 289 287 285 284 283 282 282 281 280 278 277 275 273 271 269 267 266 264 263
300 300 301 304 305 305 306 305 306 307 305 304 303 303 304 304 304 304 302 300 300 302 303 304 305 304 302 302 304 307 309 310 310 308 304 303 300 296 292 288 285 280 276 272 269 270 272 275 278 279 280 278 275 274 275 278 281 283 284 284 283 281 280 281 284 285 286 286 286 285 284 283 283 283 282 281 279 277 275 272 270 269 268 266 264 262
300 301 301 303 303 302 303 304 305 305 304 303 303 304 305 306 304 303 301 299 298 299 300 301 300 298 298 301 304 307 309 311 312 313 311 309 306 301 296 291 286 283 279 276 273 271 270 271 274 278 281 280 279 277 275 275 277 279 282 283 284 283 282 282 282 282 282 282 283 284 285 285 285 284 282 281 281 279 276 273 270 268 267 266 264 262
301 301 301 301 301 302 302 303 304 304 304 304 304 304 304 304 304 303 301 298 297 297 299 300 297 293 292 295 298 301 304 307 310 312 313 313 311 309 305 299 293 288 285 281 278 276 273 272 272 273 275 278 279 279 278 277 276 277 279 281 283 283 283 283 283 282 281 281 281 282 284 285 286 285 282 282 282 281 280 277 274 270 267 265 263 262
301 300 300 300 300 301 301 301 302 303 303 303 304 304 304 303 302 301 299 299 298 297 298 297 295 292 291 292 294 296 298 301 304 306 309 310 311 311 309 306 303 298 293 288 285 281 278 276 273 271 270 270 273 276 278 279 278 277 277 280 281 281 282 282 283 284 283 280 279 279 280 281 281 281 281 283 283 283 283 281 278 274 270 267 264 262
300 299 298 298 299 300 301 302 302 303 303 303 304 304 305 304 302 300 297 298 297 295 294 293 293 292 293 293 293 295 297 298 299 302 304 307 309 310 310 309 308 305 302 298 295 291 287 283 279 273 268 265 265 269 274 277 278 277 278 278 278 278 279 281 284 285 285 283 281 280 279 278 276 276 277 281 283 284 284 283 282 279 275 270 266 264
300 298 298 298 298 299 300 301 302 302 301 302 303 303 304 305 303 300 297 296 294 292 290 289 289 290 291 292 293 295 296 297 298 300 302 305 307 308 308 308 308 307 306 305 304 302 299 296 292 286 278 268 264 265 268 273 277 279 280 279 279 279 279 281 284 286 286 285 285 284 282 280 278 276 275 278 281 283 284 284 284 282 279 274 270 267
300 299 299 298 298 298 299 300 301 300 300 300 301 302 302 302 302 301 299 297 294 291 288 287 286 286 288 290 291 293 295 295 295 297 299 303 304 304 304 304 305 306 305 306 307 307 306 304 302 299 294 285 275 268 266 270 275 279 281 282 282 282 282 283 285 287 287 286 286 285 284 282 281 279 277 276 279 283 285 286 286 285 283 280 276 272
Height
826 826 826 826 826 825 825 824 824 823 821 821 821 820 819 819 818 817 816 816 815 814 813 812 811 811 809 808 807 806 806 805 804 803 803 802 801 801 800 800 799 798 797 797 796 796 795 794 793 793 792 791 791 790 789 789 788 787 787 786 786 785 784 784 783 782 782 781 781 780 780 779 779 778 778 777 777 776 776 776 775 775 774 774 773 773
825 825 825 825 824 824 823 823 822 822 821 820 819 819 818 818 817 816 815 814 814 813 812 811 810 809 808 807 806 805 804 804 803 802 801 801 800 799 798 798 797 796 796 795 794 794 793 792 791 791 790 790 789 788 787 787 786 786 785 784 783 783 782 782 781 781 780 779 779 778 778 777 776 776 776 775 775 775 774 774 773 773 772 772 771 771
824 824 823 823 823 823 822 821 821 821 820 819 818 818 817 816 816 815 814 813 813 812 811 810 809 808 807 806 805 804 803 802 801 801 800 799 798 797 796 796 795 795 794 793 792 792 791 790 790 789 788 787 787 786 786 785 784 783 783 782 781 781 780 780 779 778 778 777 776 776 775 775 774 774 773 773 773 772 772 771 771 771 770 770 769 769
823 823 822 822 822 822 821 821 820 819 819 818 817 816 816 815 814 813 813 812 811 811 810 809 808 807 806 805 803 802 801 801 800 799 798 797 796 796 795 794 793 793 792 791 791 790 789 788 788 787 786 786 785 784 783 783 782 781 781 780 779 779 778 777 777 776 775 775 774 774 773 772 772 771 771 771 770 770 769 769 768 768 768 767 767 766
822 822 821 821 821 821 820 819 819 818 817 817 816 815 815 814 813 812 812 811 810 809 808 807 807 806 805 803 802 801 800 799 798 797 796 796 795 794 793 792 791 791 790 790 789 788 787 786 786 785 785 784 783 782 781 781 780 779 779 778 777 776 776 775 774 774 773 772 772 771 771 770 770 769 769 768 768 767 767 766 766 766 765 765 765 764
821 821 821 821 820 819 819 818 818 817 816 816 815 814 813 813 812 811 811 810 809 808 807 806 806 805 803 802 801 799 798 797 796 796 795 794 793 792 791 791 790 789 789 788 787 786 786 785 784 783 783 782 781 780 779 779 778 777 776 776 775 774 773 773 772 771 771 770 769 769 768 768 767 767 766 766 766 765 765 764 764 763 763 762 762 762
820 820 820 819 819 818 817 817 816 816 816 815 814 813 812 811 811 810 810 809 808 807 806 805 804 803 802 801 800 798 797 796 795 794 793 792 791 791 790 789 788 788 787 786 785 785 784 783 782 781 781 780 779 778 777 776 776 775 774 773 772 772 771 770 770 769 768 767 767 766 766 765 765 764 764 763 763 763 762 762 761 761 761 760 760 759
819 819 819 818 818 817 816 816 815 815 815 814 813 812 811 810 810 809 808 808 807 806 805 804 803 802 801 800 799 797 796 795 794 793 792 791 790 789 789 788 787 786 785 784 783 783 782 781 780 779 778 777 777 776 775 774 773 772 771 771 770 769 768 768 767 766 766 765 765 764 764 763 762 762 761 761 761 760 760 760 759 759 758 758 757 757
818 818 817 817 816 816 815 814 814 814 814 813 812 811 810 809 808 808 807 806 806 805 804 803 802 801 800 799 798 796 795 794 793 792 791 790 789 788 787 786 785 784 783 782 781 781 780 779 778 777 776 775 774 773 772 771 771 770 769 768 768 767 766 766 765 764 763 763 762 762 761 761 760 760 759 759 758 758 758 757 757 756 756 756 755 755
817 817 816 816 815 815 814 813 813 813 812 812 811 811 810 809 807 806 806 805 805 804 804 803 801 800 798 797 796 795 794 793 792 791 790 789 787 786 786 785 783 782 781 781 780 778 777 776 776 775 774 773 772 771 770 769 768 767 767 766 765 765 764 763 762 762 761 761 760 760 759 759 758 758 757 757 756 756 755 755 755 754 754 753 753 752
816 816 815 814 814 814 813 812 812 811 811 810 810 809 809 808 807 806 805 804 803 803 803 802 801 800 798 796 795 794 793 791 790 789 788 786 786 785 784 783 781 781 779 778 777 776 775 774 773 772 771 770 769 768 767 767 766 765 765 764 763 762 761 761 760 760 759 759 758 757 757 756 756 756 755 755 754 754 753 753 752 752 751 751 751 750
815 814 814 813 813 812 812 811 811 810 810 809 809 808 807 807 807 806 805 804 803 802 801 801 800 799 797 795 794 792 791 790 789 787 786 785 784 783 782 781 780 778 777 776 775 774 773 772 771 770 769 768 767 766 765 764 764 763 762 761 761 760 759 759 758 757 757 756 756 756 755 754 754 753 753 752 752 751 751 750 750 749 749 749 748 748
814 813 813 812 811 811 811 810 809 809 809 809 808 807 806 806 806 806 805 804 803 802 801 800 798 797 796 794 793 791 790 789 787 786 785 784 782 781 781 779 778 777 776 775 773 772 771 770 769 768 766 765 764 764 763 762 761 760 760 759 758 758 757 756 756 756 755 754 754 753 753 752 751 751 750 750 749 749 748 748 747 747 746 746 746 745
813 812 811 811 810 810 809 809 808 808 808 808 807 807 806 806 806 805 804 803 802 801 800 799 797 795 794 792 791 790 789 787 786 785 784 783 782 781 780 778 777 776 775 773 771 770 769 768 767 765 764 763 762 761 761 760 759 758 757 757 756 756 755 755 754 753 753 752 751 751 750 750 749 748 748 747 747 746 746 746 745 745 744 744 743 743
811 811 810 809 809 808 808 808 808 807 807 807 806 806 806 805 805 804 804 802 801 800 799 797 795 794 792 791 790 789 788 786 785 784 782 781 781 780 779 777 776 775 773 772 770 769 768 767 766 764 762 761 760 759 758 758 757 756 755 755 754 754 753 752 751 751 750 750 749 748 748 747 746 746 745 745 744 744 743 743 742 742 741 741 741 740
810 810 809 808 807 807 807 807 807 806 806 806 806 806 805 805 804 803 803 801 800 799 797 796 793 791 790 789 788 787 786 786 784 783 781 780 779 778 778 776 775 773 772 771 769 767 766 765 764 762 761 759 758 757 756 756 755 754 753 753 752 751 751 750 749 749 748 747 746 746 745 745 744 743 743 742 742 741 741 740 740 739 739 738 738 737
809 808 808 807 807 806 806 806 806 806 805 805 805 805 805 804 803 802 801 800 799 797 796 795 792 790 787 786 786 786 786 785 783 782 781 779 777 776 776 775 774 771 770 769 767 766 765 763 762 761 759 757 756 756 755 754 753 752 751 751 750 749 748 748 747 746 746 745 744 743 743 742 741 741 740 740 739 738 738 737 737 736 736 736 735 735
808 807 807 806 806 806 805 805 805 805 805 804 804 804 803 803 802 801 800 799 798 796 795 793 792 790 787 785 784 784 785 784 782 781 780 777 776 775 775 774 772 770 769 767 766 764 763 762 760 759 757 756 755 754 753 752 751 750 749 748 747 747 746 746 745 744 743 742 742 741 740 740 739 738 737 737 736 736 735 735 734 734 733 733 732 732
807 807 806 806 805 805 805 805 805 804 804 804 803 803 802 801 800 799 798 797 796 795 793 792 791 789 787 785 783 783 784 783 782 780 778 776 774 773 773 772 771 769 767 765 764 763 761 760 758 757 755 754 753 752 751 750 749 748 747 746 745 745 744 743 742 741 741 740 739 738 738 737 736 736 735 734 734 733 732 732 731 731 730 730 729 729
806 806 806 805 805 804 804 804 804 804 803 803 802 801 800 799 798 797 796 795 794 793 792 791 790 788 786 784 783 782 782 782 781 779 777 775 772 771 771 770 769 767 765 763 762 761 760 758 756 755 753 752 751 750 749 748 747 746 745 744 743 742 741 741 740 739 738 737 736 736 735 734 734 733 732 731 731 730 730 729 729 728 728 727 726 726
805 805 805 805 804 804 803 803 803 803 802 802 801 800 798 797 796 795 794 793 792 791 791 790 788 786 786 784 782 781 781 781 780 778 776 774 771 770 769 769 768 766 764 762 761 760 758 756 755 753 751 750 749 748 747 746 745 744 743 742 741 740 739 738 737 736 736 735 734 733 732 731 731 730 730 729 728 728 727 726 726 725 725 724 724 723
804 803 803 803 803 803 802 802 802 801 801 800 799 798 796 796 795 794 793 792 791 790 789 788 787 786 784 783 781 780 780 780 779 778 776 773 770 768 768 767 766 764 762 760 759 758 756 755 753 751 750 748 747 746 745 744 742 741 741 740 739 738 737 736 735 734 733 732 731 731 730 729 728 728 727 726 725 725 724 724 723 722 722 721 720 720
803 802 802 802 802 801 801 801 800 800 799 798 797 796 795 794 794 792 791 791 790 789 788 787 786 784 783 781 780 779 778 778 778 777 775 772 768 766 766 766 765 763 761 759 757 756 754 753 751 749 748 746 745 744 743 741 740 739 738 737 736 735 734 733 732 731 731 730 729 728 727 726 725 725 724 723 723 722 721 721 720 720 719 718 718 717
801 801 801 800 800 800 800 799 798 797 796 796 795 794 794 793 793 792 791 790 789 788 786 785 784 782 781 779 778 777 777 776 776 776 774 771 768 765 765 764 763 761 759 757 756 754 752 751 749 747 746 744 743 742 741 739 738 737 736 735 734 733 732 731 730 729 728 727 726 725 725 724 723 722 721 720 720 719 718 718 717 717 716 715 715 714
800 800 799 799 799 798 798 797 796 796 795 795 794 794 793 792 791 791 790 788 787 786 785 784 782 781 779 778 776 776 775 775 775 774 773 770 767 764 763 763 762 760 757 755 754 753 751 749 746 745 744 742 741 739 738 737 736 735 733 732 731 730 729 728 727 726 725 725 724 723 722 721 720 719 719 718 717 716 715 715 714 714 713 712 712 711
799 798 798 797 797 797 796 796 796 795 795 794 793 792 792 791 790 789 787 787 786 785 784 783 781 779 778 776 775 774 773 773 773 772 771 769 766 763 761 761 761 758 756 753 752 751 749 747 745 743 742 740 738 737 736 735 734 732 731 730 729 728 727 726 725 724 723 722 721 720 719 718 717 717 716 715 714 714 713 712 711 711 710 710 709 708
797 797 796 796 796 795 795 794 794 793 793 792 792 791 791 789 788 787 786 785 785 784 783 782 780 778 777 775 774 772 772 772 771 771 770 768 765 762 760 760 759 757 754 752 750 749 748 745 743 741 739 738 736 735 734 732 731 730 729 728 726 725 724 723 722 721 720 719 718 717 716 715 715 714 713 712 712 711 710 710 709 708 708 707 706 705
796 795 795 795 794 794 793 793 792 791 791 790 790 789 789 788 787 786 784 784 784 783 782 781 780 778 776 774 772 771 771 770 770 769 768 767 765 762 759 758 757 756 754 751 748 746 746 744 741 739 737 736 734 733 731 730 729 728 726 725 724 722 721 720 719 718 717 716 715 715 714 713 712 711 710 710 709 708 707 707 706 705 705 704 703 702
794 794 793 793 793 792 791 791 790 789 788 788 787 787 786 786 785 784 783 783 783 782 781 780 779 777 776 774 772 770 769 768 768 767 767 766 763 761 759 758 756 755 753 750 746 744 742 741 740 738 736 734 733 731 730 728 727 725 724 722 721 720 719 718 717 716 715 714 713 712 711 710 710 709 708 707 706 705 705 704 704 703 702 701 700 699
793 792 792 791 791 791 790 789 788 787 786 785 785 785 785 784 784 783 782 782 782 781 780 779 778 777 775 774 771 769 767 766 766 766 766 765 762 759 758 757 756 754 753 751 746 742 738 737 737 736 735 733 731 730 728 726 725 723 721 720 718 717 716 715 714 713 712 711 710 709 708 707 707 706 705 704 704 703 702 702 701 701 700 699 698 697
791 791 790 789 789 788 787 786 786 785 784 783 783 783 783 782 782 781 781 781 781 780 779 778 776 776 775 774 771 768 765 764 765 765 765 764 761 758 757 756 754 753 753 752 749 744 738 734 733 733 733 732 730 728 726 725 723 721 720 718 716 715 713 713 712 711 710 708 707 706 705 705 704 703 702 701 701 700 700 699 699 698 697 696 695 694
789 789 788 787 787 786 785 784 784 783 782 782 781 781 781 781 781 780 780 779 779 778 777 776 776 775 774 773 771 769 765 763 763 764 764 763 760 758 756 755 753 752 751 751 751 747 742 735 731 730 731 730 728 726 724 723 722 720 718 716 714 712 711 710 710 709 707 706 705 704 703 702 701 700 699 699 698 697 697 696 696 696 695 694 693 692
788 787 786 786 785 784 784 783 782 781 781 780 780 780 779 779 779 779 778 778 777 777 776 775 774 773 772 771 770 767 765 763 762 763 763 761 759 757 755 754 753 751 750 749 749 747 744 739 734 730 728 727 726 724 722 721 720 718 717 715 713 711 709 709 708 706 705 703 702 701 700 699 698 697 696 695 695 694 694 693 693 693 693 692 691 690
786 786 785 784 783 783 782 781 781 780 780 779 779 779 778 778 777 777 776 776 776 775 775 774 773 772 771 769 767 765 763 762 761 761 761 761 759 756 754 753 752 750 749 747 746 744 742 739 735 732 728 725 723 722 721 719 718 716 715 714 712 710 708 706 705 704 703 701 700 698 697 696 695 694 693 692 692 691 690 690 690 690 690 690 689 688
785 784 783 783 782 781 781 780 780 779 779 778 778 777 777 776 776 775 775 774 774 773 773 772 771 771 770 768 766 764 761 760 760 760 760 759 758 756 754 752 751 749 748 746 744 742 740 737 735 732 729 724 721 719 718 717 716 715 713 712 710 708 706 705 704 702 700 699 698 696 695 694 692 691 690 689 689 688 688 687 687 687 687 687 686 685
784 783 782 781 781 781 780 779 779 778 778 777 777 776 776 775 774 774 773 772 772 771 771 770 769 769 768 767 765 763 760 758 758 758 758 758 756 755 753 751 749 748 747 745 743 741 739 736 733 731 729 725 720 717 715 715 714 713 711 710 708 707 705 704 702 701 699 697 695 694 693 691 690 689 688 687 686 685 685 685 685 684 684 684 683 683
783 782 781 781 781 780 779 779 778 777 777 776 776 775 774 774 773 772 771 771 770 769 769 768 767 766 765 764 763 761 759 757 756 756 756 756 755 754 752 749 748 747 746 744 742 740 738 735 732 729 727 725 721 717 714 712 711 710 709 708 706 705 703 701 700 699 697 695 694 692 690 690 688 687 686 685 684 683 682 682 681 681 680 680 680 680
782 781 781 780 780 779 778 778 777 776 776 775 774 773 773 772 771 771 770 769 768 767 766 766 765 764 763 762 761 759 757 756 754 754 753 753 753 752 750 748 746 745 744 743 741 739 737 735 731 728 725 722 720 717 714 712 710 708 706 705 704 702 701 699 698 697 695 694 692 690 689 688 686 685 684 683 682 681 680 679 678 677 677 677 676 676
781 781 780 780 779 778 778 777 776 776 775 774 773 772 771 771 770 769 768 767 766 766 765 764 763 761 760 759 758 756 755 754 752 751 751 751 750 750 748 746 744 743 742 741 739 738 736 734 731 728 725 721 718 715 713 711 710 707 705 703 701 699 698 697 696 695 694 692 690 688 686 685 684 683 682 680 680 679 678 676 675 675 675 674 673 672
781 780 779 779 778 778 777 776 775 775 774 773 772 771 770 769 768 767 766 766 765 764 763 762 761 759 758 757 756 754 753 751 750 749 749 748 747 747 746 745 743 741 739 738 737 736 734 732 729 726 724 721 718 714 712 710 708 706 705 702 699 696 695 695 694 693 691 690 688 686 685 683 682 681 680 679 677 677 675 674 673 673 672 672 671 670
780 779 779 778 777 777 776 775 774 773 773 772 771 770 769 768 767 766 765 764 763 762 761 760 759 757 756 755 753 752 751 749 748 747 746 746 745 744 743 742 741 739 737 736 735 733 732 730 727 724 722 720 717 714 711 708 706 705 704 701 698 695 693 692 691 690 689 687 685 684 683 681 680 678 677 676 675 674 673 672 671 670 670 669 669 668
779 779 778 777 776 776 775 774 773 772 772 771 770 769 768 767 766 765 764 762 761 761 760 759 757 756 754 752 751 750 748 747 746 745 744 743 743 742 741 740 738 737 736 734 732 730 729 727 725 722 720 718 715 713 709 706 704 703 702 700 697 693 691 689 688 688 687 685 683 682 681 679 677 676 675 674 672 671 670 670 669 668 667 666 665 665
779 778 777 776 776 775 774 773 772 771 771 770 769 768 767 766 765 764 763 761 760 759 758 757 756 754 752 750 748 746 746 745 744 743 742 741 741 740 738 737 736 735 734 732 730 727 725 724 722 720 718 716 714 711 708 704 701 700 699 697 696 693 690 686 685 685 684 683 681 680 678 677 675 673 672 671 670 668 667 666 665 665 664 663 662 661
778 777 776 776 775 774 773 772 771 771 770 769 768 767 766 765 764 763 762 761 760 758 757 756 755 753 751 749 746 745 743 743 742 741 740 739 738 737 736 735 734 732 731 730 728 725 723 721 719 717 715 714 712 709 706 703 700 698 695 694 694 692 689 685 683 682 681 680 678 677 675 674 672 671 669 668 666 665 664 663 662 661 660 659 659 658
777 776 776 775 774 773 772 771 771 770 769 768 767 766 765 764 763 762 761 760 759 757 756 756 754 752 750 747 745 743 741 740 739 739 738 737 736 735 734 733 731 730 729 727 725 724 721 719 716 714 712 711 710 707 704 701 698 695 693 691 690 689 686 684 682 680 679 677 675 674 673 671 670 669 667 665 663 662 661 660 659 657 656 655 655 654
776 776 775 774 773 772 771 771 770 769 767 766 766 765 764 763 762 761 760 759 758 757 756 755 754 752 750 747 745 743 741 738 737 736 735 735 734 733 732 731 729 728 726 724 722 721 719 716 714 712 710 708 706 704 701 699 697 694 690 689 687 686 683 681 680 678 677 675 673 671 670 669 668 666 664 662 660 659 657 656 655 654 653 652 651 650
775 775 774 773 772 771 770 769 768 767 766 766 764 763 763 762 761 760 759 758 757 756 755 754 752 751 749 747 745 743 740 738 735 733 732 731 731 730 729 728 727 725 724 722 720 718 716 714 712 710 709 706 703 700 697 696 694 692 689 686 685 683 681 679 677 675 674 673 670 668 667 667 665 664 661 659 657 655 654 653 652 651 650 649 648 646
775 774 773 772 771 770 769 768 767 766 765 764 763 762 761 761 760 759 758 757 756 755 754 752 751 750 748 746 744 742 741 738 735 733 731 730 728 727 726 725 724 723 721 719 717 715 713 711 709 708 706 704 701 697 694 692 691 689 687 685 683 681 678 675 674 673 671 670 668 666 665 664 663 660 658 656 654 652 650 649 648 648 647 645 645 643
774 773 772 771 770 769 768 767 766 766 764 763 762 761 760 759 759 758 757 756 755 754 752 751 750 748 746 744 742 741 739 737 735 732 730 729 727 725 724 723 721 720 718 716 714 712 710 708 706 705 703 702 699 695 691 689 687 686 685 683 681 678 676 673 671 670 669 667 665 664 663 662 660 658 656 654 651 648 646 645 645 644 643 642 641 640
773 772 771 770 769 768 767 766 765 764 763 762 761 760 759 758 757 756 756 755 753 752 751 750 748 746 745 742 741 739 738 736 733 731 729 727 726 724 723 721 719 718 715 713 711 709 707 704 702 700 700 698 696 694 690 687 684 683 682 680 678 676 674 671 669 667 666 664 663 661 660 659 657 656 654 652 649 645 643 642 641 640 640 639 638 637
771 771 770 769 768 767 766 765 764 763 762 761 760 759 758 757 756 755 754 753 752 751 749 748 747 745 743 741 739 737 736 734 732 730 728 726 725 723 721 720 718 716 714 711 709 707 704 701 698 695 694 694 693 692 689 685 683 681 679 677 676 674 672 669 667 665 663 662 660 659 658 656 655 654 652 650 647 644 641 639 637 637 636 636 636 634